TimeEST,TemperatureF,Dew PointF,Humidity,Sea Level PressureIn,VisibilityMPH,Wind Direction,Wind SpeedMPH,Gust SpeedMPH,PrecipitationIn,Events,Conditions,WindDirDegrees,DateUTC
12:53 AM,53.1,51.1,93,29.93,8.0,SE,3.5,-,N/A,,Overcast,140,2013-01-02 05:53:00
1:53 AM,53.1,51.1,93,29.93,7.0,Calm,Calm,-,N/A,,Overcast,0,2013-01-02 06:53:00
2:53 AM,53.1,51.1,93,29.92,8.0,Calm,Calm,-,N/A,,Overcast,0,2013-01-02 07:53:00
3:53 AM,53.6,51.8,94,29.92,8.0,NE,3.5,-,N/A,,Overcast,50,2013-01-02 08:53:00
4:43 AM,53.6,51.8,94,29.90,6.0,Calm,Calm,-,0.00,,Overcast,0,2013-01-02 09:43:00
4:53 AM,53.1,52.0,96,29.92,5.0,NNW,3.5,-,0.00,Rain,Light Rain,330,2013-01-02 09:53:00
5:01 AM,53.6,51.8,94,29.91,1.8,North,3.5,-,0.02,Rain,Rain,360,2013-01-02 10:01:00
5:06 AM,53.6,51.8,94,29.91,2.0,Calm,Calm,-,0.03,Rain,Rain,0,2013-01-02 10:06:00
5:53 AM,54.0,52.0,93,29.91,4.0,NNE,6.9,-,0.05,Rain,Light Rain,30,2013-01-02 10:53:00
5:59 AM,53.6,51.8,94,29.91,2.5,NNE,4.6,-,0.00,,Overcast,20,2013-01-02 10:59:00
6:26 AM,53.6,51.8,94,29.91,4.0,Variable,3.5,-,0.01,Rain,Light Rain,0,2013-01-02 11:26:00
6:53 AM,54.0,52.0,93,29.91,7.0,NNE,4.6,-,0.01,,Overcast,30,2013-01-02 11:53:00
7:32 AM,53.6,51.8,94,29.95,4.0,NNE,6.9,-,0.00,Rain,Light Rain,20,2013-01-02 12:32:00
7:42 AM,53.6,51.8,94,29.94,2.5,NNE,6.9,-,0.01,Rain,Light Rain,30,2013-01-02 12:42:00
7:49 AM,53.6,51.8,94,29.94,3.0,NE,6.9,-,N/A,Rain,Light Rain,40,2013-01-02 12:49:00
7:53 AM,54.0,52.0,93,29.96,2.5,NNE,6.9,-,0.02,Rain,Light Rain,20,2013-01-02 12:53:00
8:09 AM,53.6,51.8,94,29.96,6.0,NNE,9.2,-,0.01,,Overcast,20,2013-01-02 13:09:00
8:38 AM,53.6,51.8,94,29.98,2.0,North,10.4,-,0.02,Rain,Light Rain,10,2013-01-02 13:38:00
8:53 AM,53.1,51.1,93,29.98,4.0,North,11.5,-,0.03,Rain,Light Rain,10,2013-01-02 13:53:00
9:28 AM,53.6,51.8,94,30.02,2.5,NNE,10.4,-,0.00,Rain,Light Rain,30,2013-01-02 14:28:00
9:45 AM,53.6,51.8,94,30.01,1.8,NE,9.2,-,0.01,Rain,Light Rain,40,2013-01-02 14:45:00
9:53 AM,53.6,50.0,88,30.02,3.0,NNE,12.7,-,N/A,Rain,Light Rain,20,2013-01-02 14:53:00
10:53 AM,51.1,48.0,89,30.05,10.0,NNE,12.7,-,N/A,,Overcast,30,2013-01-02 15:53:00
11:26 AM,51.8,48.2,88,30.04,10.0,NNE,12.7,-,N/A,,Overcast,20,2013-01-02 16:26:00
11:39 AM,50.0,46.4,87,30.04,10.0,North,12.7,-,N/A,,Overcast,360,2013-01-02 16:39:00
11:53 AM,50.0,48.0,93,30.04,10.0,NNE,9.2,-,0.00,Rain,Light Rain,20,2013-01-02 16:53:00
12:35 PM,51.8,48.2,88,30.02,10.0,ENE,6.9,-,0.00,,Overcast,70,2013-01-02 17:35:00
12:50 PM,51.8,48.2,88,30.02,10.0,ENE,3.5,-,0.00,,Overcast,70,2013-01-02 17:50:00
12:53 PM,52.0,48.0,86,30.02,10.0,East,3.5,-,0.00,,Overcast,90,2013-01-02 17:53:00
1:37 PM,53.6,48.2,82,30.02,10.0,NE,6.9,-,N/A,,Overcast,50,2013-01-02 18:37:00
1:53 PM,53.1,48.0,83,30.03,10.0,NNE,5.8,-,N/A,,Overcast,20,2013-01-02 18:53:00
2:05 PM,53.6,46.4,77,30.03,10.0,North,6.9,-,N/A,,Overcast,360,2013-01-02 19:05:00
2:16 PM,51.8,46.4,82,30.03,10.0,North,6.9,-,N/A,,Overcast,360,2013-01-02 19:16:00
2:27 PM,51.8,46.4,82,30.03,10.0,NNE,6.9,-,N/A,,Overcast,20,2013-01-02 19:27:00
2:53 PM,53.1,46.9,80,30.04,10.0,North,8.1,-,N/A,,Overcast,360,2013-01-02 19:53:00
3:07 PM,51.8,46.4,82,30.04,10.0,North,6.9,-,N/A,,Overcast,10,2013-01-02 20:07:00
3:22 PM,51.8,46.4,82,30.05,10.0,NNE,9.2,-,N/A,,Overcast,20,2013-01-02 20:22:00
3:53 PM,52.0,45.0,77,30.06,10.0,NNE,10.4,-,N/A,,Overcast,20,2013-01-02 20:53:00
4:53 PM,50.0,44.1,80,30.09,10.0,NNE,11.5,-,N/A,,Overcast,20,2013-01-02 21:53:00
5:21 PM,48.2,44.6,87,30.09,10.0,NNE,9.2,-,N/A,,Overcast,20,2013-01-02 22:21:00
5:53 PM,48.2,42.8,82,30.11,10.0,NNE,11.5,-,N/A,,Overcast,30,2013-01-02 22:53:00
6:24 PM,46.4,42.8,87,30.11,10.0,NE,9.2,-,N/A,,Overcast,50,2013-01-02 23:24:00
6:53 PM,46.9,43.0,86,30.13,10.0,NNE,6.9,-,N/A,,Overcast,20,2013-01-02 23:53:00
7:19 PM,46.4,42.8,87,30.13,10.0,NNE,9.2,-,N/A,,Overcast,30,2013-01-03 00:19:00
7:53 PM,46.0,41.0,83,30.16,10.0,North,10.4,-,N/A,,Overcast,10,2013-01-03 00:53:00
8:53 PM,45.0,39.9,82,30.16,10.0,NE,5.8,-,N/A,,Overcast,40,2013-01-03 01:53:00
9:53 PM,44.1,39.0,82,30.16,10.0,NE,9.2,-,N/A,,Overcast,40,2013-01-03 02:53:00
10:32 PM,44.6,39.2,81,30.18,10.0,NNE,6.9,-,N/A,,Overcast,20,2013-01-03 03:32:00
10:53 PM,44.1,39.0,82,30.19,10.0,North,6.9,-,N/A,,Overcast,10,2013-01-03 03:53:00
11:53 PM,44.1,39.0,82,30.19,10.0,NNE,8.1,-,N/A,,Overcast,30,2013-01-03 04:53:00